User: anonymous   Login
Location: Unspecified
(0.0000°N, 0.0000°E)
Time: 05:36:14
(UTC+02:00)
Language:

Cosmos 1300 - Orbit

View from above orbital plane
View from above orbital plane
View from above satellite
View from above satellite

Ground track
Ground track

The orbit data is extracted from the following two-line orbital elements,

1 12785U 81082A   16270.28318041  .00001178  00000-0  59268-4 0  9996
2 12785  82.5058 334.0829 0002789  87.5814 336.3044 15.16287714911850
Epoch (UTC): 26 September 2016 06:47:46
Eccentricity: 0.0002789
inclination: 82.5058°
perigee height: 515 km
apogee height: 519 km
right ascension of ascending node: 334.0829°
argument of perigee: 87.5814°
revolutions per day: 15.16287714
mean anomaly at epoch: 336.3044°
orbit number at epoch: 91185

The dashed part of the orbit path shows where the satellite is in the earth's shadow,  

DLR